START_TIME,STEP,MOV.,EG07,t_acc.,EG08,t_acc.,EG09,t_acc.,EB05,t_acc.,EBP05,t_acc.
1979-07-02 12:00:23.720 ,0,0,0.,1.2,0.,1.2,0.,1.2,,0.0,,0.0
1979-07-02 12:00:24.920 ,0,0,0.,1.2,0.,1.2,0.,1.2,,0.0,,0.0
1979-07-02 12:00:26.120 ,0,0,1.,1.2,0.,1.2,0.,1.2,,0.0,,0.0
1979-07-02 12:00:27.320 ,0,0,0.,1.2,0.,1.2,0.,1.2,,0.0,,0.0
1979-07-02 12:00:28.520 ,0,0,0.,1.2,0.,1.2,0.,1.2,,0.0,,0.0
1979-07-02 12:00:29.720 ,0,0,1.,1.2,1.,1.2,0.,1.2,,0.0,,0.0
1979-07-02 12:00:30.920 ,0,0,1.,1.2,0.,1.2,0.,1.2,,0.0,,0.0
1979-07-02 12:00:32.120 ,0,0,0.,1.2,0.,1.2,0.,1.2,,0.0,,0.0
1979-07-02 12:00:33.320 ,0,0,1.,1.2,0.,1.2,0.,1.2,,0.0,,0.0
1979-07-02 12:00:34.520 ,0,0,1.,1.2,0.,1.2,0.,1.2,,0.0,,0.0
1979-07-02 12:00:35.720 ,0,0,0.,1.2,0.,1.2,0.,1.2,,0.0,,0.0
1979-07-02 12:00:36.920 ,0,0,1.,1.2,0.,1.2,0.,1.2,,0.0,,0.0
1979-07-02 12:00:38.120 ,0,0,1.,1.2,0.,1.2,0.,1.2,,0.0,,0.0
1979-07-02 12:00:39.320 ,0,0,0.,1.2,0.,1.2,0.,1.2,,0.0,,0.0
1979-07-02 12:00:40.520 ,0,0,0.,1.2,0.,1.2,0.,1.2,,0.0,,0.0
1979-07-02 12:00:41.720 ,0,0,0.,1.2,0.,1.2,0.,1.2,,0.0,,0.0
1979-07-02 12:00:42.920 ,0,0,0.,1.2,0.,1.2,0.,1.2,,0.0,,0.0
1979-07-02 12:00:44.120 ,0,0,0.,1.2,0.,1.2,0.,1.2,,0.0,,0.0
1979-07-02 12:00:45.320 ,0,0,0.,1.2,0.,1.2,0.,1.2,,0.0,,0.0
1979-07-02 12:00:46.520 ,0,0,0.,1.2,0.,1.2,0.,1.2,,0.0,,0.0
1979-07-02 12:00:47.720 ,1,0,0.,1.2,0.,1.2,0.,1.2,,0.0,,0.0
1979-07-02 12:00:48.920 ,1,0,1.,1.2,1.,1.2,0.,1.2,,0.0,,0.0
1979-07-02 12:00:50.120 ,1,0,0.,1.2,0.,1.2,0.,1.2,,0.0,,0.0
1979-07-02 12:00:51.320 ,1,0,1.,1.2,0.,1.2,0.,1.2,,0.0,,0.0
1979-07-02 12:00:52.520 ,1,0,0.,1.2,0.,1.2,0.,1.2,,0.0,,0.0
1979-07-02 12:00:53.720 ,1,0,0.,1.2,0.,1.2,0.,1.2,,0.0,,0.0
1979-07-02 12:00:54.920 ,1,0,0.,1.2,0.,1.2,0.,1.2,,0.0,,0.0
1979-07-02 12:00:56.120 ,1,0,0.,1.2,0.,1.2,0.,1.2,,0.0,,0.0
1979-07-02 12:00:57.320 ,1,0,0.,1.2,0.,1.2,0.,1.2,,0.0,,0.0
1979-07-02 12:00:58.520 ,1,0,0.,1.2,0.,1.2,0.,1.2,,0.0,,0.0
1979-07-02 12:00:59.720 ,1,0,0.,1.2,0.,1.2,0.,1.2,,0.0,,0.0
1979-07-02 12:01:00.920 ,1,0,0.,1.2,0.,1.2,0.,1.2,,0.0,,0.0
1979-07-02 12:01:02.120 ,1,0,0.,1.2,0.,1.2,0.,1.2,,0.0,,0.0
1979-07-02 12:01:03.320 ,1,0,0.,1.2,0.,1.2,0.,1.2,,0.0,,0.0
1979-07-02 12:01:04.520 ,1,0,0.,1.2,0.,1.2,0.,1.2,,0.0,,0.0
1979-07-02 12:01:05.720 ,1,0,0.,1.2,0.,1.2,0.,1.2,,0.0,,0.0
1979-07-02 12:01:06.920 ,1,0,0.,1.2,0.,1.2,0.,1.2,,0.0,,0.0
1979-07-02 12:01:08.120 ,1,0,0.,1.2,0.,1.2,0.,1.2,,0.0,,0.0
1979-07-02 12:01:09.320 ,1,0,0.,1.2,0.,1.2,0.,1.2,,0.0,,0.0
1979-07-02 12:01:10.520 ,1,0,0.,1.2,0.,1.2,0.,1.2,,0.0,,0.0
1979-07-02 12:01:11.720 ,1,0,0.,1.2,0.,1.2,0.,1.2,,0.0,,0.0
1979-07-02 12:01:12.920 ,1,0,1.,1.2,1.,1.2,0.,1.2,,0.0,,0.0
1979-07-02 12:01:14.120 ,1,0,0.,1.2,0.,1.2,0.,1.2,,0.0,,0.0
1979-07-02 12:01:15.320 ,1,0,0.,1.2,0.,1.2,0.,1.2,,0.0,,0.0
1979-07-02 12:01:16.520 ,1,0,0.,1.2,0.,1.2,0.,1.2,,0.0,,0.0
1979-07-02 12:01:17.720 ,1,0,0.,1.2,0.,1.2,0.,1.2,,0.0,,0.0
1979-07-02 12:01:18.920 ,1,0,1.,1.2,1.,1.2,1.,1.2,,0.0,,0.0
1979-07-02 12:01:20.120 ,1,0,1.,1.2,1.,1.2,0.,1.2,,0.0,,0.0
1979-07-02 12:01:21.320 ,1,0,0.,1.2,0.,1.2,0.,1.2,,0.0,,0.0
1979-07-02 12:01:22.520 ,1,0,0.,1.2,0.,1.2,0.,1.2,,0.0,,0.0
1979-07-02 12:01:23.720 ,1,0,0.,1.2,0.,1.2,0.,1.2,,0.0,,0.0
1979-07-02 12:01:24.920 ,1,0,1.,1.2,1.,1.2,0.,1.2,,0.0,,0.0
1979-07-02 12:01:26.120 ,1,0,0.,1.2,0.,1.2,0.,1.2,,0.0,,0.0
1979-07-02 12:01:27.320 ,1,0,0.,1.2,0.,1.2,0.,1.2,,0.0,,0.0
1979-07-02 12:01:28.520 ,1,0,0.,1.2,0.,1.2,0.,1.2,,0.0,,0.0
1979-07-02 12:01:29.720 ,1,0,1.,1.2,0.,1.2,0.,1.2,,0.0,,0.0
1979-07-02 12:01:30.920 ,1,0,0.,1.2,0.,1.2,0.,1.2,,0.0,,0.0
1979-07-02 12:01:32.120 ,1,0,0.,1.2,0.,1.2,0.,1.2,,0.0,,0.0
1979-07-02 12:01:33.320 ,1,0,0.,1.2,0.,1.2,0.,1.2,,0.0,,0.0
1979-07-02 12:01:34.520 ,1,0,0.,1.2,0.,1.2,0.,1.2,,0.0,,0.0
1979-07-02 12:01:35.720 ,2,0,0.,1.2,0.,1.2,0.,1.2,,0.0,,0.0
1979-07-02 12:01:36.920 ,2,0,1.,1.2,0.,1.2,0.,1.2,,0.0,,0.0
1979-07-02 12:01:38.120 ,2,0,0.,1.2,0.,1.2,0.,1.2,,0.0,,0.0
1979-07-02 12:01:39.320 ,2,0,0.,1.2,0.,1.2,0.,1.2,,0.0,,0.0
1979-07-02 12:01:40.520 ,2,0,0.,1.2,0.,1.2,0.,1.2,,0.0,,0.0
1979-07-02 12:01:41.720 ,2,0,0.,1.2,0.,1.2,0.,1.2,,0.0,,0.0
1979-07-02 12:01:42.920 ,2,0,0.,1.2,0.,1.2,0.,1.2,,0.0,,0.0
1979-07-02 12:01:44.120 ,2,0,0.,1.2,0.,1.2,0.,1.2,,0.0,,0.0
1979-07-02 12:01:45.320 ,2,0,0.,1.2,0.,1.2,0.,1.2,,0.0,,0.0
1979-07-02 12:01:46.520 ,2,0,0.,1.2,0.,1.2,0.,1.2,,0.0,,0.0
1979-07-02 12:01:47.720 ,2,0,0.,1.2,0.,1.2,0.,1.2,,0.0,,0.0
1979-07-02 12:01:48.920 ,2,0,1.,1.2,1.,1.2,0.,1.2,,0.0,,0.0
1979-07-02 12:01:50.120 ,2,0,0.,1.2,0.,1.2,0.,1.2,,0.0,,0.0
1979-07-02 12:01:51.320 ,2,0,0.,1.2,0.,1.2,0.,1.2,,0.0,,0.0
1979-07-02 12:01:52.520 ,2,0,0.,1.2,0.,1.2,0.,1.2,,0.0,,0.0
1979-07-02 12:01:53.720 ,2,0,0.,1.2,0.,1.2,0.,1.2,,0.0,,0.0
1979-07-02 12:01:54.920 ,2,0,0.,1.2,0.,1.2,0.,1.2,,0.0,,0.0
1979-07-02 12:01:56.120 ,2,0,0.,1.2,0.,1.2,0.,1.2,,0.0,,0.0
1979-07-02 12:01:57.320 ,2,0,0.,1.2,0.,1.2,0.,1.2,,0.0,,0.0
1979-07-02 12:01:58.520 ,2,0,0.,1.2,0.,1.2,0.,1.2,,0.0,,0.0
1979-07-02 12:01:59.720 ,2,0,1.,1.2,0.,1.2,0.,1.2,,0.0,,0.0
1979-07-02 12:02:00.920 ,2,0,0.,1.2,0.,1.2,0.,1.2,,0.0,,0.0
1979-07-02 12:02:02.120 ,2,0,0.,1.2,0.,1.2,0.,1.2,,0.0,,0.0
1979-07-02 12:02:03.320 ,2,0,0.,1.2,0.,1.2,0.,1.2,,0.0,,0.0
1979-07-02 12:02:04.520 ,2,0,0.,1.2,0.,1.2,0.,1.2,,0.0,,0.0
1979-07-02 12:02:05.720 ,2,0,0.,1.2,0.,1.2,0.,1.2,,0.0,,0.0
1979-07-02 12:02:06.920 ,2,0,0.,1.2,0.,1.2,0.,1.2,,0.0,,0.0
1979-07-02 12:02:08.120 ,2,0,0.,1.2,0.,1.2,0.,1.2,,0.0,,0.0
1979-07-02 12:02:09.320 ,2,0,1.,1.2,0.,1.2,0.,1.2,,0.0,,0.0
1979-07-02 12:02:10.520 ,2,0,0.,1.2,0.,1.2,0.,1.2,,0.0,,0.0
1979-07-02 12:02:11.720 ,2,0,1.,1.2,0.,1.2,0.,1.2,,0.0,,0.0
1979-07-02 12:02:12.920 ,2,0,0.,1.2,0.,1.2,0.,1.2,,0.0,,0.0
1979-07-02 12:02:14.120 ,2,0,0.,1.2,0.,1.2,0.,1.2,,0.0,,0.0
1979-07-02 12:02:15.320 ,2,0,0.,1.2,0.,1.2,0.,1.2,,0.0,,0.0
1979-07-02 12:02:16.520 ,2,0,0.,1.2,0.,1.2,0.,1.2,,0.0,,0.0
1979-07-02 12:02:17.720 ,2,0,0.,1.2,0.,1.2,0.,1.2,,0.0,,0.0
1979-07-02 12:02:18.920 ,2,0,0.,1.2,0.,1.2,0.,1.2,,0.0,,0.0
1979-07-02 12:02:20.120 ,2,0,0.,1.2,0.,1.2,0.,1.2,,0.0,,0.0
1979-07-02 12:02:21.320 ,2,0,0.,1.2,0.,1.2,0.,1.2,,0.0,,0.0
1979-07-02 12:02:22.520 ,2,0,0.,1.2,0.,1.2,0.,1.2,,0.0,,0.0
1979-07-02 12:02:23.720 ,3,0,0.,1.2,0.,1.2,0.,1.2,,0.0,,0.0
1979-07-02 12:02:24.920 ,3,0,0.,1.2,0.,1.2,0.,1.2,,0.0,,0.0
1979-07-02 12:02:26.120 ,3,0,0.,1.2,0.,1.2,0.,1.2,,0.0,,0.0
1979-07-02 12:02:27.320 ,3,0,0.,1.2,0.,1.2,0.,1.2,,0.0,,0.0
1979-07-02 12:02:28.520 ,3,0,0.,1.2,0.,1.2,0.,1.2,,0.0,,0.0
1979-07-02 12:02:29.720 ,3,0,0.,1.2,0.,1.2,0.,1.2,,0.0,,0.0
1979-07-02 12:02:30.920 ,3,0,0.,1.2,0.,1.2,0.,1.2,,0.0,,0.0
1979-07-02 12:02:32.120 ,3,0,0.,1.2,0.,1.2,0.,1.2,,0.0,,0.0
1979-07-02 12:02:33.320 ,3,0,0.,1.2,0.,1.2,0.,1.2,,0.0,,0.0
1979-07-02 12:02:34.520 ,3,0,0.,1.2,0.,1.2,0.,1.2,,0.0,,0.0
1979-07-02 12:02:35.720 ,3,0,0.,1.2,0.,1.2,0.,1.2,,0.0,,0.0
1979-07-02 12:02:36.920 ,3,0,1.,1.2,1.,1.2,1.,1.2,,0.0,,0.0
1979-07-02 12:02:38.120 ,3,0,0.,1.2,0.,1.2,0.,1.2,,0.0,,0.0
1979-07-02 12:02:39.320 ,3,0,0.,1.2,0.,1.2,0.,1.2,,0.0,,0.0
1979-07-02 12:02:40.520 ,3,0,0.,1.2,0.,1.2,0.,1.2,,0.0,,0.0
1979-07-02 12:02:41.720 ,3,0,1.,1.2,0.,1.2,0.,1.2,,0.0,,0.0
1979-07-02 12:02:42.920 ,3,0,0.,1.2,0.,1.2,0.,1.2,,0.0,,0.0
1979-07-02 12:02:44.120 ,3,0,0.,1.2,0.,1.2,0.,1.2,,0.0,,0.0
1979-07-02 12:02:45.320 ,3,0,0.,1.2,0.,1.2,0.,1.2,,0.0,,0.0
1979-07-02 12:02:46.520 ,3,0,0.,1.2,0.,1.2,0.,1.2,,0.0,,0.0
1979-07-02 12:02:47.720 ,3,0,1.,1.2,1.,1.2,0.,1.2,,0.0,,0.0
1979-07-02 12:02:48.920 ,3,0,0.,1.2,0.,1.2,0.,1.2,,0.0,,0.0
1979-07-02 12:02:50.120 ,3,0,0.,1.2,0.,1.2,0.,1.2,,0.0,,0.0
1979-07-02 12:02:51.320 ,3,0,0.,1.2,0.,1.2,0.,1.2,,0.0,,0.0
1979-07-02 12:02:52.520 ,3,0,0.,1.2,0.,1.2,0.,1.2,,0.0,,0.0
1979-07-02 12:02:53.720 ,3,0,0.,1.2,0.,1.2,0.,1.2,,0.0,,0.0
1979-07-02 12:02:54.920 ,3,0,0.,1.2,0.,1.2,0.,1.2,,0.0,,0.0
1979-07-02 12:02:56.120 ,3,0,0.,1.2,0.,1.2,0.,1.2,,0.0,,0.0
1979-07-02 12:02:57.320 ,3,0,0.,1.2,0.,1.2,0.,1.2,,0.0,,0.0
1979-07-02 12:02:58.520 ,3,0,0.,1.2,0.,1.2,0.,1.2,,0.0,,0.0
1979-07-02 12:02:59.720 ,3,0,0.,1.2,0.,1.2,0.,1.2,,0.0,,0.0
1979-07-02 12:03:00.920 ,3,0,0.,1.2,0.,1.2,0.,1.2,,0.0,,0.0
1979-07-02 12:03:02.120 ,3,0,0.,1.2,0.,1.2,0.,1.2,,0.0,,0.0
1979-07-02 12:03:03.320 ,3,0,1.,1.2,1.,1.2,0.,1.2,,0.0,,0.0
1979-07-02 12:03:04.520 ,3,0,0.,1.2,0.,1.2,0.,1.2,,0.0,,0.0
1979-07-02 12:03:05.720 ,3,0,0.,1.2,0.,1.2,0.,1.2,,0.0,,0.0
1979-07-02 12:03:06.920 ,3,0,0.,1.2,0.,1.2,0.,1.2,,0.0,,0.0
1979-07-02 12:03:08.120 ,3,0,0.,1.2,0.,1.2,0.,1.2,,0.0,,0.0
1979-07-02 12:03:09.320 ,3,0,0.,1.2,0.,1.2,0.,1.2,,0.0,,0.0
1979-07-02 12:03:10.520 ,3,0,0.,1.2,0.,1.2,0.,1.2,,0.0,,0.0
1979-07-02 12:03:11.720 ,4,0,0.,1.2,0.,1.2,0.,1.2,,0.0,,0.0
1979-07-02 12:03:12.920 ,4,0,0.,1.2,0.,1.2,0.,1.2,,0.0,,0.0
1979-07-02 12:03:14.120 ,4,0,0.,1.2,0.,1.2,0.,1.2,,0.0,,0.0
1979-07-02 12:03:15.320 ,4,0,0.,1.2,0.,1.2,0.,1.2,,0.0,,0.0
1979-07-02 12:03:16.520 ,4,0,0.,1.2,0.,1.2,0.,1.2,,0.0,,0.0
1979-07-02 12:03:17.720 ,4,0,0.,1.2,0.,1.2,0.,1.2,,0.0,,0.0
1979-07-02 12:03:18.920 ,4,0,0.,1.2,0.,1.2,0.,1.2,,0.0,,0.0
1979-07-02 12:03:20.120 ,4,0,0.,1.2,0.,1.2,0.,1.2,,0.0,,0.0
1979-07-02 12:03:21.320 ,4,0,0.,1.2,0.,1.2,0.,1.2,,0.0,,0.0
1979-07-02 12:03:22.520 ,4,0,0.,1.2,0.,1.2,0.,1.2,,0.0,,0.0
1979-07-02 12:03:23.720 ,4,0,0.,1.2,0.,1.2,0.,1.2,,0.0,,0.0
1979-07-02 12:03:24.920 ,4,0,0.,1.2,0.,1.2,0.,1.2,,0.0,,0.0
1979-07-02 12:03:26.120 ,4,0,0.,1.2,0.,1.2,0.,1.2,,0.0,,0.0
1979-07-02 12:03:27.320 ,4,0,0.,1.2,0.,1.2,0.,1.2,,0.0,,0.0
1979-07-02 12:03:28.520 ,4,0,0.,1.2,0.,1.2,0.,1.2,,0.0,,0.0
1979-07-02 12:03:29.720 ,4,0,1.,1.2,1.,1.2,0.,1.2,,0.0,,0.0
1979-07-02 12:03:30.920 ,4,0,0.,1.2,0.,1.2,0.,1.2,,0.0,,0.0
1979-07-02 12:03:32.120 ,4,0,0.,1.2,0.,1.2,0.,1.2,,0.0,,0.0
1979-07-02 12:03:33.320 ,4,0,0.,1.2,0.,1.2,0.,1.2,,0.0,,0.0
1979-07-02 12:03:34.520 ,4,0,0.,1.2,0.,1.2,0.,1.2,,0.0,,0.0
1979-07-02 12:03:35.720 ,4,0,0.,1.2,0.,1.2,0.,1.2,,0.0,,0.0
1979-07-02 12:03:36.920 ,4,0,0.,1.2,0.,1.2,0.,1.2,,0.0,,0.0
1979-07-02 12:03:38.120 ,4,0,0.,1.2,0.,1.2,0.,1.2,,0.0,,0.0
1979-07-02 12:03:39.320 ,4,0,0.,1.2,0.,1.2,0.,1.2,,0.0,,0.0
1979-07-02 12:03:40.520 ,4,0,0.,1.2,0.,1.2,0.,1.2,,0.0,,0.0
1979-07-02 12:03:41.720 ,4,0,1.,1.2,1.,1.2,0.,1.2,,0.0,,0.0
1979-07-02 12:03:42.920 ,4,0,0.,1.2,0.,1.2,0.,1.2,,0.0,,0.0
1979-07-02 12:03:44.120 ,4,0,0.,1.2,0.,1.2,0.,1.2,,0.0,,0.0
1979-07-02 12:03:45.320 ,4,0,0.,1.2,0.,1.2,0.,1.2,,0.0,,0.0
1979-07-02 12:03:46.520 ,4,0,1.,1.2,1.,1.2,0.,1.2,,0.0,,0.0
1979-07-02 12:03:47.720 ,4,0,0.,1.2,0.,1.2,0.,1.2,,0.0,,0.0
1979-07-02 12:03:48.920 ,4,0,0.,1.2,0.,1.2,0.,1.2,,0.0,,0.0
1979-07-02 12:03:50.120 ,4,0,1.,1.2,1.,1.2,0.,1.2,,0.0,,0.0
1979-07-02 12:03:51.320 ,4,0,0.,1.2,0.,1.2,0.,1.2,,0.0,,0.0
1979-07-02 12:03:52.520 ,4,0,0.,1.2,0.,1.2,0.,1.2,,0.0,,0.0
1979-07-02 12:03:53.720 ,4,0,0.,1.2,0.,1.2,0.,1.2,,0.0,,0.0
1979-07-02 12:03:54.920 ,4,0,0.,1.2,0.,1.2,0.,1.2,,0.0,,0.0
1979-07-02 12:03:56.120 ,4,0,0.,1.2,0.,1.2,0.,1.2,,0.0,,0.0
1979-07-02 12:03:57.320 ,4,0,0.,1.2,0.,1.2,0.,1.2,,0.0,,0.0
1979-07-02 12:03:58.520 ,4,0,1.,1.2,1.,1.2,0.,1.2,,0.0,,0.0
1979-07-02 12:03:59.720 ,5,0,0.,1.2,0.,1.2,0.,1.2,,0.0,,0.0
1979-07-02 12:04:00.920 ,5,0,0.,1.2,0.,1.2,0.,1.2,,0.0,,0.0
1979-07-02 12:04:02.120 ,5,0,0.,1.2,0.,1.2,0.,1.2,,0.0,,0.0
1979-07-02 12:04:03.320 ,5,0,0.,1.2,0.,1.2,0.,1.2,,0.0,,0.0
1979-07-02 12:04:04.520 ,5,0,0.,1.2,0.,1.2,0.,1.2,,0.0,,0.0
1979-07-02 12:04:05.720 ,5,0,0.,1.2,0.,1.2,0.,1.2,,0.0,,0.0
1979-07-02 12:04:06.920 ,5,0,0.,1.2,0.,1.2,0.,1.2,,0.0,,0.0
1979-07-02 12:04:08.120 ,5,0,1.,1.2,1.,1.2,0.,1.2,,0.0,,0.0
1979-07-02 12:04:09.320 ,5,0,0.,1.2,0.,1.2,0.,1.2,,0.0,,0.0
1979-07-02 12:04:10.520 ,5,0,0.,1.2,0.,1.2,0.,1.2,,0.0,,0.0
1979-07-02 12:04:11.720 ,5,0,0.,1.2,0.,1.2,0.,1.2,,0.0,,0.0
1979-07-02 12:04:12.920 ,5,0,0.,1.2,0.,1.2,0.,1.2,,0.0,,0.0
1979-07-02 12:04:14.120 ,5,0,0.,1.2,0.,1.2,0.,1.2,,0.0,,0.0
1979-07-02 12:04:15.320 ,5,0,0.,1.2,0.,1.2,0.,1.2,,0.0,,0.0
1979-07-02 12:04:16.520 ,5,0,1.,1.2,0.,1.2,0.,1.2,,0.0,,0.0
1979-07-02 12:04:17.720 ,5,0,0.,1.2,0.,1.2,0.,1.2,,0.0,,0.0
1979-07-02 12:04:18.920 ,5,0,0.,1.2,0.,1.2,0.,1.2,,0.0,,0.0
1979-07-02 12:04:20.120 ,5,0,0.,1.2,0.,1.2,0.,1.2,,0.0,,0.0
1979-07-02 12:04:21.320 ,5,0,0.,1.2,0.,1.2,0.,1.2,,0.0,,0.0
1979-07-02 12:04:22.520 ,5,0,0.,1.2,0.,1.2,0.,1.2,,0.0,,0.0
1979-07-02 12:04:23.720 ,5,0,0.,1.2,0.,1.2,0.,1.2,,0.0,,0.0
1979-07-02 12:04:24.920 ,5,0,2.,1.2,1.,1.2,0.,1.2,,0.0,,0.0
1979-07-02 12:04:26.120 ,5,0,0.,1.2,0.,1.2,0.,1.2,,0.0,,0.0
1979-07-02 12:04:27.320 ,5,0,0.,1.2,0.,1.2,0.,1.2,,0.0,,0.0
1979-07-02 12:04:28.520 ,5,0,0.,1.2,0.,1.2,0.,1.2,,0.0,,0.0
1979-07-02 12:04:29.720 ,5,0,0.,1.2,0.,1.2,0.,1.2,,0.0,,0.0
1979-07-02 12:04:30.920 ,5,0,0.,1.2,0.,1.2,0.,1.2,,0.0,,0.0
1979-07-02 12:04:32.120 ,5,0,0.,1.2,0.,1.2,0.,1.2,,0.0,,0.0
1979-07-02 12:04:33.320 ,5,0,0.,1.2,0.,1.2,0.,1.2,,0.0,,0.0
1979-07-02 12:04:34.520 ,5,0,2.,1.2,1.,1.2,1.,1.2,,0.0,,0.0
1979-07-02 12:04:35.720 ,5,0,0.,1.2,0.,1.2,0.,1.2,,0.0,,0.0
1979-07-02 12:04:36.920 ,5,0,0.,1.2,0.,1.2,0.,1.2,,0.0,,0.0
1979-07-02 12:04:38.120 ,5,0,1.,1.2,1.,1.2,0.,1.2,,0.0,,0.0
1979-07-02 12:04:39.320 ,5,0,0.,1.2,0.,1.2,0.,1.2,,0.0,,0.0
1979-07-02 12:04:40.520 ,5,0,0.,1.2,0.,1.2,0.,1.2,,0.0,,0.0
1979-07-02 12:04:41.720 ,5,0,0.,1.2,0.,1.2,0.,1.2,,0.0,,0.0
1979-07-02 12:04:42.920 ,5,0,0.,1.2,0.,1.2,0.,1.2,,0.0,,0.0
1979-07-02 12:04:44.120 ,5,0,0.,1.2,0.,1.2,0.,1.2,,0.0,,0.0
1979-07-02 12:04:45.320 ,5,0,0.,1.2,0.,1.2,0.,1.2,,0.0,,0.0
1979-07-02 12:04:46.520 ,5,0,0.,1.2,0.,1.2,0.,1.2,,0.0,,0.0
1979-07-02 12:04:47.720 ,6,0,1.,1.2,1.,1.2,0.,1.2,,0.0,,0.0
1979-07-02 12:04:48.920 ,6,0,1.,1.2,1.,1.2,0.,1.2,,0.0,,0.0
1979-07-02 12:04:50.120 ,6,0,0.,1.2,0.,1.2,0.,1.2,,0.0,,0.0
1979-07-02 12:04:51.320 ,6,0,0.,1.2,0.,1.2,0.,1.2,,0.0,,0.0
1979-07-02 12:04:52.520 ,6,0,0.,1.2,0.,1.2,0.,1.2,,0.0,,0.0
1979-07-02 12:04:53.720 ,6,0,0.,1.2,0.,1.2,0.,1.2,,0.0,,0.0
1979-07-02 12:04:54.920 ,6,0,0.,1.2,0.,1.2,0.,1.2,,0.0,,0.0
1979-07-02 12:04:56.120 ,6,0,2.,1.2,1.,1.2,1.,1.2,,0.0,,0.0
1979-07-02 12:04:57.320 ,6,0,1.,1.2,1.,1.2,1.,1.2,,0.0,,0.0
1979-07-02 12:04:58.520 ,6,0,0.,1.2,0.,1.2,0.,1.2,,0.0,,0.0
1979-07-02 12:04:59.720 ,6,0,0.,1.2,0.,1.2,0.,1.2,,0.0,,0.0
1979-07-02 12:05:00.920 ,6,0,0.,1.2,0.,1.2,0.,1.2,,0.0,,0.0
1979-07-02 12:05:02.120 ,6,0,1.,1.2,1.,1.2,0.,1.2,,0.0,,0.0
1979-07-02 12:05:03.320 ,6,0,0.,1.2,0.,1.2,0.,1.2,,0.0,,0.0
1979-07-02 12:05:04.520 ,6,0,0.,1.2,0.,1.2,0.,1.2,,0.0,,0.0
1979-07-02 12:05:05.720 ,6,0,0.,1.2,0.,1.2,0.,1.2,,0.0,,0.0
1979-07-02 12:05:06.920 ,6,0,0.,1.2,0.,1.2,0.,1.2,,0.0,,0.0
1979-07-02 12:05:08.120 ,6,0,2.,1.2,2.,1.2,1.,1.2,,0.0,,0.0
1979-07-02 12:05:09.320 ,6,0,2.,1.2,2.,1.2,1.,1.2,,0.0,,0.0
1979-07-02 12:05:10.520 ,6,0,0.,1.2,0.,1.2,0.,1.2,,0.0,,0.0
1979-07-02 12:05:11.720 ,6,0,0.,1.2,0.,1.2,0.,1.2,,0.0,,0.0
1979-07-02 12:05:12.920 ,6,0,0.,1.2,0.,1.2,0.,1.2,,0.0,,0.0
1979-07-02 12:05:14.120 ,6,0,0.,1.2,0.,1.2,0.,1.2,,0.0,,0.0
1979-07-02 12:05:15.320 ,6,0,0.,1.2,0.,1.2,0.,1.2,,0.0,,0.0
1979-07-02 12:05:16.520 ,6,0,0.,1.2,0.,1.2,0.,1.2,,0.0,,0.0
1979-07-02 12:05:17.720 ,6,0,0.,1.2,0.,1.2,0.,1.2,,0.0,,0.0
1979-07-02 12:05:18.920 ,6,0,0.,1.2,0.,1.2,0.,1.2,,0.0,,0.0
1979-07-02 12:05:20.120 ,6,0,0.,1.2,0.,1.2,0.,1.2,,0.0,,0.0
1979-07-02 12:05:21.320 ,6,0,0.,1.2,0.,1.2,0.,1.2,,0.0,,0.0
1979-07-02 12:05:22.520 ,6,0,0.,1.2,0.,1.2,0.,1.2,,0.0,,0.0
1979-07-02 12:05:23.720 ,6,0,1.,1.2,0.,1.2,0.,1.2,,0.0,,0.0
1979-07-02 12:05:24.920 ,6,0,0.,1.2,0.,1.2,0.,1.2,,0.0,,0.0
1979-07-02 12:05:26.120 ,6,0,0.,1.2,0.,1.2,0.,1.2,,0.0,,0.0
1979-07-02 12:05:27.320 ,6,0,0.,1.2,0.,1.2,0.,1.2,,0.0,,0.0
1979-07-02 12:05:28.520 ,6,0,1.,1.2,1.,1.2,0.,1.2,,0.0,,0.0
1979-07-02 12:05:29.720 ,6,0,0.,1.2,0.,1.2,0.,1.2,,0.0,,0.0
1979-07-02 12:05:30.920 ,6,0,0.,1.2,0.,1.2,0.,1.2,,0.0,,0.0
1979-07-02 12:05:32.120 ,6,0,0.,1.2,0.,1.2,0.,1.2,,0.0,,0.0
1979-07-02 12:05:33.320 ,6,0,0.,1.2,0.,1.2,0.,1.2,,0.0,,0.0
1979-07-02 12:05:34.520 ,6,0,0.,1.2,0.,1.2,0.,1.2,,0.0,,0.0
1979-07-02 12:05:35.720 ,7,0,0.,1.2,0.,1.2,0.,1.2,,0.0,,0.0
1979-07-02 12:05:36.920 ,7,0,0.,1.2,0.,1.2,0.,1.2,,0.0,,0.0
1979-07-02 12:05:38.120 ,7,0,0.,1.2,0.,1.2,0.,1.2,,0.0,,0.0
1979-07-02 12:05:39.320 ,7,0,0.,1.2,0.,1.2,0.,1.2,,0.0,,0.0
1979-07-02 12:05:40.520 ,7,0,0.,1.2,0.,1.2,0.,1.2,,0.0,,0.0
1979-07-02 12:05:41.720 ,7,0,0.,1.2,0.,1.2,0.,1.2,,0.0,,0.0
1979-07-02 12:05:42.920 ,7,0,1.,1.2,0.,1.2,0.,1.2,,0.0,,0.0
1979-07-02 12:05:44.120 ,7,0,0.,1.2,0.,1.2,0.,1.2,,0.0,,0.0
1979-07-02 12:05:45.320 ,7,0,0.,1.2,0.,1.2,0.,1.2,,0.0,,0.0
1979-07-02 12:05:46.520 ,7,0,0.,1.2,0.,1.2,0.,1.2,,0.0,,0.0
1979-07-02 12:05:47.720 ,7,0,1.,1.2,1.,1.2,0.,1.2,,0.0,,0.0
1979-07-02 12:05:48.920 ,7,0,1.,1.2,1.,1.2,0.,1.2,,0.0,,0.0
1979-07-02 12:05:50.120 ,7,0,0.,1.2,0.,1.2,0.,1.2,,0.0,,0.0
1979-07-02 12:05:51.320 ,7,0,0.,1.2,0.,1.2,0.,1.2,,0.0,,0.0
1979-07-02 12:05:52.520 ,7,0,0.,1.2,0.,1.2,0.,1.2,,0.0,,0.0
1979-07-02 12:05:53.720 ,7,0,1.,1.2,0.,1.2,0.,1.2,,0.0,,0.0
1979-07-02 12:05:54.920 ,7,0,0.,1.2,0.,1.2,0.,1.2,,0.0,,0.0
1979-07-02 12:05:56.120 ,7,0,0.,1.2,0.,1.2,0.,1.2,,0.0,,0.0
1979-07-02 12:05:57.320 ,7,0,1.,1.2,1.,1.2,1.,1.2,,0.0,,0.0
1979-07-02 12:05:58.520 ,7,0,0.,1.2,0.,1.2,0.,1.2,,0.0,,0.0
1979-07-02 12:05:59.720 ,0,0,0.,1.2,0.,1.2,0.,1.2,,0.0,,0.0
1979-07-02 12:06:00.920 ,0,0,0.,1.2,0.,1.2,0.,1.2,,0.0,,0.0
1979-07-02 12:06:02.120 ,0,0,1.,1.2,1.,1.2,0.,1.2,,0.0,,0.0
1979-07-02 12:06:03.320 ,0,0,0.,1.2,0.,1.2,0.,1.2,,0.0,,0.0
1979-07-02 12:06:04.520 ,0,0,0.,1.2,0.,1.2,0.,1.2,,0.0,,0.0
1979-07-02 12:06:05.720 ,0,0,0.,1.2,0.,1.2,0.,1.2,,0.0,,0.0
1979-07-02 12:06:06.920 ,0,0,0.,1.2,0.,1.2,0.,1.2,,0.0,,0.0
1979-07-02 12:06:08.120 ,0,0,0.,1.2,0.,1.2,0.,1.2,,0.0,,0.0
1979-07-02 12:06:09.320 ,0,0,0.,1.2,0.,1.2,0.,1.2,,0.0,,0.0
1979-07-02 12:06:10.520 ,0,0,0.,1.2,0.,1.2,0.,1.2,,0.0,,0.0
1979-07-02 12:06:11.720 ,0,0,0.,1.2,0.,1.2,0.,1.2,,0.0,,0.0
1979-07-02 12:06:12.920 ,0,0,0.,1.2,0.,1.2,0.,1.2,,0.0,,0.0
1979-07-02 12:06:14.120 ,0,0,0.,1.2,0.,1.2,0.,1.2,,0.0,,0.0
1979-07-02 12:06:15.320 ,0,0,0.,1.2,0.,1.2,0.,1.2,,0.0,,0.0
1979-07-02 12:06:16.520 ,0,0,0.,1.2,0.,1.2,0.,1.2,,0.0,,0.0
1979-07-02 12:06:17.720 ,0,0,0.,1.2,0.,1.2,0.,1.2,,0.0,,0.0
1979-07-02 12:06:18.920 ,0,0,1.,1.2,0.,1.2,0.,1.2,,0.0,,0.0
1979-07-02 12:06:20.120 ,0,0,0.,1.2,0.,1.2,0.,1.2,,0.0,,0.0
1979-07-02 12:06:21.320 ,0,0,0.,1.2,0.,1.2,0.,1.2,,0.0,,0.0
1979-07-02 12:06:22.520 ,0,0,,0,,0,,0,,0,,0
1979-07-02 12:06:23.720 ,7,0,0.,1.2,0.,1.2,0.,1.2,,0.0,,0.0
1979-07-02 12:06:24.920 ,7,0,1.,1.2,1.,1.2,0.,1.2,,0.0,,0.0
1979-07-02 12:06:26.120 ,7,0,0.,1.2,0.,1.2,0.,1.2,,0.0,,0.0
1979-07-02 12:06:27.320 ,7,0,0.,1.2,0.,1.2,0.,1.2,,0.0,,0.0
1979-07-02 12:06:28.520 ,7,0,0.,1.2,0.,1.2,0.,1.2,,0.0,,0.0
1979-07-02 12:06:29.720 ,7,0,0.,1.2,0.,1.2,0.,1.2,,0.0,,0.0
1979-07-02 12:06:30.920 ,7,0,0.,1.2,0.,1.2,0.,1.2,,0.0,,0.0
1979-07-02 12:06:32.120 ,7,0,1.,1.2,1.,1.2,0.,1.2,,0.0,,0.0
1979-07-02 12:06:33.320 ,7,0,0.,1.2,0.,1.2,0.,1.2,,0.0,,0.0
1979-07-02 12:06:34.520 ,7,0,0.,1.2,0.,1.2,0.,1.2,,0.0,,0.0
1979-07-02 12:06:35.720 ,7,0,0.,1.2,0.,1.2,0.,1.2,,0.0,,0.0
1979-07-02 12:06:36.920 ,7,0,0.,1.2,0.,1.2,0.,1.2,,0.0,,0.0
1979-07-02 12:06:38.120 ,7,0,0.,1.2,0.,1.2,0.,1.2,,0.0,,0.0
1979-07-02 12:06:39.320 ,7,0,0.,1.2,0.,1.2,0.,1.2,,0.0,,0.0
1979-07-02 12:06:40.520 ,7,0,1.,1.2,0.,1.2,0.,1.2,,0.0,,0.0
1979-07-02 12:06:41.720 ,7,0,1.,1.2,0.,1.2,0.,1.2,,0.0,,0.0
1979-07-02 12:06:42.920 ,7,0,0.,1.2,0.,1.2,0.,1.2,,0.0,,0.0
1979-07-02 12:06:44.120 ,7,0,0.,1.2,0.,1.2,0.,1.2,,0.0,,0.0
1979-07-02 12:06:45.320 ,7,0,1.,1.2,0.,1.2,0.,1.2,,0.0,,0.0
1979-07-02 12:06:46.520 ,7,0,0.,1.2,0.,1.2,0.,1.2,,0.0,,0.0
1979-07-02 12:06:47.720 ,7,0,2.,1.2,0.,1.2,0.,1.2,,0.0,,0.0
1979-07-02 12:06:48.920 ,7,0,1.,1.2,1.,1.2,0.,1.2,,0.0,,0.0
1979-07-02 12:06:50.120 ,7,0,1.,1.2,0.,1.2,0.,1.2,,0.0,,0.0
1979-07-02 12:06:51.320 ,7,0,1.,1.2,1.,1.2,1.,1.2,,0.0,,0.0
1979-07-02 12:06:52.520 ,7,0,0.,1.2,0.,1.2,0.,1.2,,0.0,,0.0
1979-07-02 12:06:53.720 ,7,0,1.,1.2,1.,1.2,1.,1.2,,0.0,,0.0
1979-07-02 12:06:54.920 ,7,0,0.,1.2,0.,1.2,0.,1.2,,0.0,,0.0
1979-07-02 12:06:56.120 ,7,0,0.,1.2,0.,1.2,0.,1.2,,0.0,,0.0
1979-07-02 12:06:57.320 ,7,0,0.,1.2,0.,1.2,0.,1.2,,0.0,,0.0
1979-07-02 12:06:58.520 ,7,0,1.,1.2,0.,1.2,0.,1.2,,0.0,,0.0
1979-07-02 12:06:59.720 ,7,0,1.,1.2,0.,1.2,0.,1.2,,0.0,,0.0
1979-07-02 12:07:00.920 ,7,0,0.,1.2,0.,1.2,0.,1.2,,0.0,,0.0
1979-07-02 12:07:02.120 ,7,0,0.,1.2,0.,1.2,0.,1.2,,0.0,,0.0
1979-07-02 12:07:03.320 ,7,0,1.,1.2,1.,1.2,0.,1.2,,0.0,,0.0
1979-07-02 12:07:04.520 ,7,0,0.,1.2,0.,1.2,0.,1.2,,0.0,,0.0
1979-07-02 12:07:05.720 ,7,0,0.,1.2,0.,1.2,0.,1.2,,0.0,,0.0
1979-07-02 12:07:06.920 ,7,0,0.,1.2,0.,1.2,0.,1.2,,0.0,,0.0
1979-07-02 12:07:08.120 ,7,0,0.,1.2,0.,1.2,0.,1.2,,0.0,,0.0
1979-07-02 12:07:09.320 ,7,0,0.,1.2,0.,1.2,0.,1.2,,0.0,,0.0
1979-07-02 12:07:10.520 ,7,0,0.,1.2,0.,1.2,0.,1.2,,0.0,,0.0
1979-07-02 12:07:11.720 ,6,0,0.,1.2,0.,1.2,0.,1.2,,0.0,,0.0
1979-07-02 12:07:12.920 ,6,0,0.,1.2,0.,1.2,0.,1.2,,0.0,,0.0
1979-07-02 12:07:14.120 ,6,0,1.,1.2,0.,1.2,0.,1.2,,0.0,,0.0
1979-07-02 12:07:15.320 ,6,0,0.,1.2,0.,1.2,0.,1.2,,0.0,,0.0
1979-07-02 12:07:16.520 ,6,0,1.,1.2,0.,1.2,0.,1.2,,0.0,,0.0
1979-07-02 12:07:17.720 ,6,0,0.,1.2,0.,1.2,0.,1.2,,0.0,,0.0
1979-07-02 12:07:18.920 ,6,0,1.,1.2,0.,1.2,0.,1.2,,0.0,,0.0
1979-07-02 12:07:20.120 ,6,0,1.,1.2,0.,1.2,0.,1.2,,0.0,,0.0
1979-07-02 12:07:21.320 ,6,0,0.,1.2,0.,1.2,0.,1.2,,0.0,,0.0
1979-07-02 12:07:22.520 ,6,0,0.,1.2,0.,1.2,0.,1.2,,0.0,,0.0
1979-07-02 12:07:23.720 ,6,0,0.,1.2,0.,1.2,0.,1.2,,0.0,,0.0
1979-07-02 12:07:24.920 ,6,0,0.,1.2,0.,1.2,0.,1.2,,0.0,,0.0
1979-07-02 12:07:26.120 ,6,0,1.,1.2,0.,1.2,0.,1.2,,0.0,,0.0
1979-07-02 12:07:27.320 ,6,0,0.,1.2,0.,1.2,0.,1.2,,0.0,,0.0
1979-07-02 12:07:28.520 ,6,0,0.,1.2,0.,1.2,0.,1.2,,0.0,,0.0
1979-07-02 12:07:29.720 ,6,0,1.,1.2,0.,1.2,0.,1.2,,0.0,,0.0
1979-07-02 12:07:30.920 ,6,0,0.,1.2,0.,1.2,0.,1.2,,0.0,,0.0
1979-07-02 12:07:32.120 ,6,0,1.,1.2,1.,1.2,0.,1.2,,0.0,,0.0
1979-07-02 12:07:33.320 ,6,0,2.,1.2,1.,1.2,0.,1.2,,0.0,,0.0
1979-07-02 12:07:34.520 ,6,0,0.,1.2,0.,1.2,0.,1.2,,0.0,,0.0
1979-07-02 12:07:35.720 ,6,0,0.,1.2,0.,1.2,0.,1.2,,0.0,,0.0
1979-07-02 12:07:36.920 ,6,0,1.,1.2,0.,1.2,0.,1.2,,0.0,,0.0
1979-07-02 12:07:38.120 ,6,0,0.,1.2,0.,1.2,0.,1.2,,0.0,,0.0
1979-07-02 12:07:39.320 ,6,0,1.,1.2,0.,1.2,0.,1.2,,0.0,,0.0
1979-07-02 12:07:40.520 ,6,0,0.,1.2,0.,1.2,0.,1.2,,0.0,,0.0
1979-07-02 12:07:41.720 ,6,0,0.,1.2,0.,1.2,0.,1.2,,0.0,,0.0
1979-07-02 12:07:42.920 ,6,0,0.,1.2,0.,1.2,0.,1.2,,0.0,,0.0
1979-07-02 12:07:44.120 ,6,0,0.,1.2,0.,1.2,0.,1.2,,0.0,,0.0
1979-07-02 12:07:45.320 ,6,0,0.,1.2,0.,1.2,0.,1.2,,0.0,,0.0
1979-07-02 12:07:46.520 ,6,0,0.,1.2,0.,1.2,0.,1.2,,0.0,,0.0
1979-07-02 12:07:47.720 ,6,0,1.,1.2,1.,1.2,0.,1.2,,0.0,,0.0
1979-07-02 12:07:48.920 ,6,0,0.,1.2,0.,1.2,0.,1.2,,0.0,,0.0
1979-07-02 12:07:50.120 ,6,0,0.,1.2,0.,1.2,0.,1.2,,0.0,,0.0
1979-07-02 12:07:51.320 ,6,0,0.,1.2,0.,1.2,0.,1.2,,0.0,,0.0
1979-07-02 12:07:52.520 ,6,0,0.,1.2,0.,1.2,0.,1.2,,0.0,,0.0
1979-07-02 12:07:53.720 ,6,0,0.,1.2,0.,1.2,0.,1.2,,0.0,,0.0
1979-07-02 12:07:54.920 ,6,0,0.,1.2,0.,1.2,0.,1.2,,0.0,,0.0
1979-07-02 12:07:56.120 ,6,0,0.,1.2,0.,1.2,0.,1.2,,0.0,,0.0
1979-07-02 12:07:57.320 ,6,0,0.,1.2,0.,1.2,0.,1.2,,0.0,,0.0
1979-07-02 12:07:58.520 ,6,0,0.,1.2,0.,1.2,0.,1.2,,0.0,,0.0
1979-07-02 12:07:59.720 ,5,0,0.,1.2,0.,1.2,0.,1.2,,0.0,,0.0
1979-07-02 12:08:00.920 ,5,0,0.,1.2,0.,1.2,0.,1.2,,0.0,,0.0
1979-07-02 12:08:02.120 ,5,0,0.,1.2,0.,1.2,0.,1.2,,0.0,,0.0
1979-07-02 12:08:03.320 ,5,0,1.,1.2,0.,1.2,0.,1.2,,0.0,,0.0
1979-07-02 12:08:04.520 ,5,0,0.,1.2,0.,1.2,0.,1.2,,0.0,,0.0
1979-07-02 12:08:05.720 ,5,0,0.,1.2,0.,1.2,0.,1.2,,0.0,,0.0
1979-07-02 12:08:06.920 ,5,0,0.,1.2,0.,1.2,0.,1.2,,0.0,,0.0
1979-07-02 12:08:08.120 ,5,0,0.,1.2,0.,1.2,0.,1.2,,0.0,,0.0
1979-07-02 12:08:09.320 ,5,0,0.,1.2,0.,1.2,0.,1.2,,0.0,,0.0
1979-07-02 12:08:10.520 ,5,0,0.,1.2,0.,1.2,0.,1.2,,0.0,,0.0
1979-07-02 12:08:11.720 ,5,0,1.,1.2,1.,1.2,0.,1.2,,0.0,,0.0
1979-07-02 12:08:12.920 ,5,0,0.,1.2,0.,1.2,0.,1.2,,0.0,,0.0